GW6787 Weather Reports


time (UTC)temp
F
wind
direction
speed
knots
gust
knots
rain 1hr
in
rain 24hr
in
rain mn
in
humidity
%
barometer
mb
20260507114003 58 138 2.6 7.0 0.00 0.00 0.00 59 1017.9
20260507113506 58 86 2.6 7.8 0.00 0.00 0.00 59 1017.9
20260507113023 58 146 3.5 7.8 0.00 0.00 0.00 59 1018.0
20260507112509 58 123 2.6 7.8 0.00 0.00 0.00 61 1018.0
20260507112008 58 123 2.6 7.0 0.00 0.00 0.00 61 1018.1
20260507111523 58 169 1.7 7.0 0.00 0.00 0.00 60 1018.1
20260507111003 58 113 2.6 7.0 0.00 0.00 0.00 60 1018.1
20260507110507 58 97 2.6 8.7 0.00 0.00 0.00 61 1018.1
20260507110023 57 101 2.6 8.7 0.00 0.00 0.00 60 1018.1
20260507105511 57 107 1.7 7.0 0.00 0.00 0.00 62 1018.1
20260507105003 57 50 2.6 7.0 0.00 0.00 0.00 62 1018.1
20260507104520 57 119 3.5 7.0 0.00 0.00 0.00 60 1018.0
20260507104010 57 88 1.7 5.2 0.00 0.00 0.00 62 1018.0
20260507103503 57 73 1.7 7.0 0.00 0.00 0.00 61 1018.0
20260507103008 57 126 1.7 8.7 0.00 0.00 0.00 62 1018.1
20260507102503 57 101 3.5 8.7 0.00 0.00 0.00 62 1018.0
20260507102007 57 140 2.6 7.0 0.00 0.00 0.00 61 1018.0
20260507101521 57 140 2.6 7.0 0.00 0.00 0.00 60 1018.0
20260507101011 57 103 1.7 6.1 0.00 0.00 0.00 61 1018.0
20260507100507 57 107 2.6 6.1 0.00 0.00 0.00 62 1018.0
20260507100032 57 135 1.7 6.1 0.00 0.00 0.00 63 1017.9
20260507095507 56 121 1.7 6.1 0.00 0.00 0.00 63 1018.0
20260507095007 56 97 1.7 7.8 0.00 0.00 0.00 64 1018.0
20260507094523 56 115 2.6 6.1 0.00 0.00 0.00 62 1017.9
20260507094003 56 85 1.7 6.1 0.00 0.00 0.00 62 1017.9
20260507093510 56 174 1.7 6.1 0.00 0.00 0.00 63 1017.9
20260507093031 57 128 1.7 5.2 0.00 0.00 0.00 61 1017.8
20260507092512 57 62 1.7 5.2 0.00 0.00 0.00 60 1017.9
20260507092007 57 115 2.6 5.2 0.00 0.00 0.00 62 1017.7
20260507091511 56 142 0.9 7.0 0.00 0.00 0.00 61 1017.8
20260507091003 57 98 1.7 7.8 0.00 0.00 0.00 60 1017.9
20260507090507 57 130 2.6 7.8 0.00 0.00 0.00 61 1017.7
20260507090020 57 126 1.7 5.2 0.00 0.00 0.00 62 1017.7
20260507085506 56 75 1.7 5.2 0.00 0.00 0.00 63 1017.6
20260507085009 55 37 0.9 5.2 0.00 0.00 0.00 67 1017.6
20260507084538 54 65 1.7 5.2 0.00 0.00 0.00 65 1017.6
20260507084007 53 103 0.9 4.3 0.00 0.00 0.00 66 1017.6
20260507083510 53 112 0.9 4.3 0.00 0.00 0.00 66 1017.6
20260507083022 53 135 0.9 3.5 0.00 0.00 0.00 67 1017.6
20260507082506 53 94 0.9 3.5 0.00 0.00 0.00 67 1017.6
20260507082013 52 128 0.9 3.5 0.00 0.00 0.00 69 1017.6
20260507081529 52 98 1.7 3.5 0.00 0.00 0.00 69 1017.5
20260507081010 52 130 0.9 3.5 0.00 0.00 0.00 68 1017.5
20260507080507 52 119 1.7 3.5 0.00 0.00 0.00 68 1017.4
20260507080016 52 130 1.7 2.6 0.00 0.00 0.00 69 1017.4
20260507075506 52 100 0.9 2.6 0.00 0.00 0.00 69 1017.4
20260507075012 52 116 0.9 2.6 0.00 0.00 0.00 68 1017.3
20260507074522 52 58 0.9 3.5 0.00 0.00 0.00 69 1017.2
20260507074005 52 92 0.0 3.5 0.00 0.00 0.00 68 1017.3
20260507073506 52 44 0.9 3.5 0.00 0.00 0.00 66 1017.2
20260507073026 53 119 1.7 4.3 0.00 0.00 0.00 68 1017.3
20260507072509 53 138 1.7 4.3 0.00 0.00 0.00 69 1017.1
20260507072012 53 101 0.9 3.5 0.00 0.00 0.00 67 1017.1
20260507071520 53 84 0.9 3.5 0.00 0.00 0.00 68 1017.1
20260507071004 53 108 0.9 3.5 0.00 0.00 0.00 69 1017.1
20260507070504 52 92 0.9 5.2 0.00 0.00 0.00 69 1017.1
20260507070019 52 117 0.9 5.2 0.00 0.00 0.00 70 1017.1
20260507065502 52 69 0.9 2.6 0.00 0.00 0.00 71 1017.1
20260507065003 51 138 0.9 3.5 0.00 0.00 0.00 71 1017.1
20260507064513 51 121 0.9 3.5 0.00 0.00 0.00 70 1017.1
20260507064004 51 143 1.7 3.5 0.00 0.00 0.00 73 1017.0
20260507063506 50 107 0.9 2.6 0.00 0.00 0.00 74 1017.0
20260507063004 49 84 0.9 2.6 0.00 0.00 0.00 75 1017.1
20260507062503 49 145 0.9 2.6 0.00 0.00 0.00 75 1017.0
20260507062000 48 68 0.9 2.6 0.00 0.00 0.00 76 1017.0
20260507061508 48 32 0.0 2.6 0.00 0.00 0.00 77 1016.9
20260507061007 47 122 0.9 2.6 0.00 0.00 0.00 78 1016.9
20260507060504 47 36 0.9 2.6 0.00 0.00 0.00 79 1017.0
20260507060004 47 78 0.9 1.7 0.00 0.00 0.00 81 1016.9
20260507055506 46 305 0.0 1.7 0.00 0.00 0.00 82 1016.8
20260507055006 46 321 0.0 1.7 0.00 0.00 0.00 82 1016.8
20260507054505 46 321 0.0 1.7 0.00 0.00 0.00 82 1016.7
20260507054002 46 320 0.0 1.7 0.00 0.00 0.00 82 1016.6
20260507053507 46 340 0.0 1.7 0.00 0.00 0.00 82 1016.7
20260507053020 46 38 0.0 1.7 0.00 0.00 0.00 82 1016.6
20260507052504 46 44 0.0 1.7 0.00 0.00 0.00 82 1016.6
20260507052006 45 53 0.0 1.7 0.00 0.00 0.00 82 1016.6
20260507051504 45 14 0.0 1.7 0.00 0.00 0.00 82 1016.6
20260507051006 45 15 0.0 1.7 0.00 0.00 0.00 81 1016.5
20260507050503 45 15 0.0 1.7 0.00 0.00 0.00 81 1016.5
20260507050027 46 15 0.0 1.7 0.00 0.00 0.00 80 1016.5
20260507045506 46 21 0.0 1.7 0.00 0.00 0.00 80 1016.5
20260507045004 46 34 0.0 1.7 0.00 0.00 0.00 79 1016.4
20260507044519 46 69 0.0 1.7 0.00 0.00 0.00 79 1016.3
20260507044004 46 71 0.0 1.7 0.00 0.00 0.00 79 1016.3
20260507043506 46 26 0.0 1.7 0.00 0.00 0.00 79 1016.3
20260507043006 46 26 0.0 1.7 0.00 0.00 0.00 78 1016.3
20260507042508 46 26 0.0 1.7 0.00 0.00 0.00 78 1016.1
20260507042010 46 26 0.0 1.7 0.00 0.00 0.00 78 1016.1
20260507041507 46 75 0.0 2.6 0.00 0.00 0.00 78 1016.1
20260507041003 46 55 0.0 2.6 0.00 0.00 0.00 78 1016.1
20260507040504 46 50 0.9 2.6 0.00 0.00 0.00 78 1016.1
20260507040004 46 63 0.9 2.6 0.00 0.00 0.00 78 1016.0
20260507035504 46 58 0.0 2.6 0.00 0.00 0.00 78 1016.0
20260507035004 46 76 0.0 1.7 0.00 0.00 0.00 78 1016.0
20260507034505 46 63 0.0 2.6 0.00 0.00 0.00 78 1016.0
20260507034008 46 63 0.9 2.6 0.00 0.00 0.00 78 1015.9
20260507033504 46 52 0.9 1.7 0.00 0.00 0.00 78 1016.0
20260507033026 46 57 0.0 1.7 0.00 0.00 0.00 78 1015.9
20260507032503 46 57 0.0 1.7 0.00 0.00 0.00 77 1016.0
20260507032005 46 41 0.0 1.7 0.00 0.00 0.00 76 1015.9
20260507031506 46 46 0.0 1.7 0.00 0.00 0.00 76 1016.0
20260507031003 46 46 0.0 2.6 0.00 0.00 0.00 76 1016.0
20260507030503 46 49 0.0 2.6 0.00 0.00 0.00 76 1016.0
20260507030007 47 28 0.0 3.5 0.00 0.00 0.00 76 1016.0
20260507025502 47 36 0.9 3.5 0.00 0.00 0.00 76 1016.0
20260507025008 47 36 0.0 2.6 0.00 0.00 0.00 75 1016.0
20260507024515 47 27 0.9 3.5 0.00 0.00 0.00 75 1016.1
20260507024004 47 28 0.0 3.5 0.00 0.00 0.00 75 1016.1
20260507023505 47 48 0.9 3.5 0.00 0.00 0.00 75 1016.1
20260507023009 47 89 0.9 3.5 0.00 0.00 0.00 75 1016.0
20260507022506 47 39 0.9 3.5 0.00 0.00 0.00 76 1016.0
20260507022006 47 61 0.9 3.5 0.00 0.00 0.00 76 1016.0
20260507021512 47 28 0.9 3.5 0.00 0.00 0.00 77 1016.0
20260507021003 47 47 0.9 3.5 0.00 0.00 0.00 77 1015.9
20260507020506 47 90 0.0 1.7 0.00 0.00 0.00 76 1015.9
20260507020005 47 40 0.0 3.5 0.00 0.00 0.00 76 1015.8
20260507015506 47 55 0.9 4.3 0.00 0.00 0.00 75 1015.8
20260507015004 47 38 0.9 4.3 0.00 0.00 0.00 75 1015.8
20260507014509 47 30 0.9 4.3 0.00 0.00 0.00 76 1015.8
20260507014002 47 96 0.9 3.5 0.00 0.00 0.00 76 1015.8
20260507013504 47 352 0.0 3.5 0.00 0.00 0.00 76 1015.7
20260507013012 47 38 0.0 3.5 0.00 0.00 0.00 75 1015.7
20260507012505 47 29 0.9 3.5 0.00 0.00 0.00 75 1015.8
20260507012003 47 96 0.9 2.6 0.00 0.00 0.00 75 1015.8
20260507011516 47 38 0.0 3.5 0.00 0.00 0.00 76 1015.7
20260507011006 47 69 0.9 3.5 0.00 0.00 0.00 76 1015.7
20260507010504 47 339 0.9 3.5 0.00 0.00 0.00 76 1015.7
20260507010023 48 82 0.9 3.5 0.00 0.00 0.00 76 1015.7
20260507005507 47 36 0.0 2.6 0.00 0.00 0.00 76 1015.7
20260507005012 47 46 0.0 2.6 0.00 0.00 0.00 76 1015.6
20260507004503 47 59 0.0 1.7 0.00 0.00 0.00 76 1015.7
20260507004003 48 46 0.0 2.6 0.00 0.00 0.00 75 1015.6
20260507003503 48 75 0.0 3.5 0.00 0.00 0.00 75 1015.7
20260507003009 48 62 0.9 3.5 0.00 0.00 0.00 75 1015.6
20260507002503 48 42 0.9 3.5 0.00 0.00 0.00 75 1015.6
20260507002004 48 68 0.9 5.2 0.00 0.00 0.00 75 1015.6
20260507001512 48 55 1.7 5.2 0.00 0.00 0.00 75 1015.6
20260507001004 48 112 0.9 3.5 0.00 0.00 0.00 76 1015.6
20260507000503 48 29 0.0 3.5 0.00 0.00 0.00 76 1015.7
20260507000020 48 61 0.9 4.3 0.00 0.00 0.00 75 1015.7
20260506235507 48 78 1.7 7.0 0.00 0.00 0.00 75 1015.7
20260506235007 48 63 0.9 7.0 0.00 0.00 0.00 74 1015.7
20260506234518 48 51 0.0 5.2 0.00 0.00 0.00 74 1015.7
20260506234007 49 63 1.7 5.2 0.00 0.00 0.00 74 1015.6
20260506233503 49 74 0.9 5.2 0.00 0.00 0.00 75 1015.6
20260506233006 49 110 0.9 5.2 0.00 0.00 0.00 74 1015.7
20260506232502 49 59 1.7 5.2 0.00 0.00 0.00 74 1015.7
20260506232003 49 54 0.9 5.2 0.00 0.00 0.00 75 1015.6
20260506231512 49 90 1.7 5.2 0.00 0.00 0.00 76 1015.7
20260506231004 49 49 0.9 5.2 0.00 0.00 0.00 76 1015.7
20260506230504 49 52 0.0 3.5 0.00 0.00 0.00 77 1015.7
20260506230016 48 65 0.0 2.6 0.00 0.00 0.00 77 1015.7
20260506225504 48 56 0.9 4.3 0.00 0.00 0.00 77 1015.7
20260506225003 48 33 0.9 4.3 0.00 0.00 0.00 77 1015.7
20260506224520 48 5 0.9 3.5 0.00 0.00 0.00 77 1015.6
20260506224004 49 11 0.9 3.5 0.00 0.00 0.00 77 1015.7
20260506223506 49 36 0.9 5.2 0.00 0.00 0.00 77 1015.6
20260506223024 49 32 0.9 5.2 0.00 0.00 0.00 77 1015.6
20260506222508 49 101 0.9 5.2 0.00 0.00 0.00 77 1015.5
20260506222008 49 63 0.9 5.2 0.00 0.00 0.00 77 1015.6
20260506221509 49 44 0.0 4.3 0.00 0.00 0.00 76 1015.5
20260506221003 49 34 0.9 3.5 0.00 0.00 0.00 76 1015.5
20260506220503 49 40 0.9 3.5 0.00 0.00 0.00 77 1015.4
20260506220023 49 61 0.9 7.0 0.00 0.00 0.00 77 1015.4
20260506215503 49 78 1.7 7.0 0.00 0.00 0.00 77 1015.5
20260506215007 49 52 1.7 4.3 0.00 0.00 0.00 77 1015.4
20260506214512 48 44 0.9 4.3 0.00 0.00 0.00 77 1015.4
20260506214006 48 43 0.9 4.3 0.00 0.00 0.00 77 1015.4
20260506213510 48 58 1.7 5.2 0.00 0.00 0.00 76 1015.4
20260506213010 48 53 1.7 6.1 0.00 0.00 0.00 76 1015.4
20260506212505 48 59 1.7 6.1 0.00 0.00 0.00 76 1015.4
20260506212011 48 80 0.9 4.3 0.00 0.00 0.00 76 1015.4
20260506211529 48 71 0.9 4.3 0.00 0.00 0.00 75 1015.3
20260506211003 48 37 0.9 3.5 0.00 0.00 0.00 75 1015.2
20260506210505 48 336 0.0 4.3 0.00 0.00 0.00 75 1015.2
20260506210010 49 44 0.9 6.1 0.00 0.00 0.00 75 1015.2
20260506205502 49 51 0.9 6.1 0.00 0.00 0.00 75 1015.1
20260506205002 49 128 1.7 4.3 0.00 0.00 0.00 74 1015.1
20260506204518 49 34 0.9 4.3 0.00 0.00 0.00 75 1015.1
20260506204008 49 69 1.7 4.3 0.00 0.00 0.00 75 1015.0
20260506203502 49 66 0.9 4.3 0.00 0.00 0.00 74 1015.0
20260506203027 49 40 0.9 7.8 0.00 0.00 0.00 74 1015.0
20260506202507 49 33 1.7 7.8 0.00 0.00 0.00 74 1015.0
20260506202010 49 348 0.9 4.3 0.00 0.00 0.00 73 1015.0
20260506201515 49 30 0.9 4.3 0.00 0.00 0.00 74 1015.1
20260506201008 49 25 0.9 4.3 0.00 0.00 0.00 74 1015.1
20260506200504 49 5 0.9 4.3 0.00 0.00 0.00 75 1015.0
20260506200010 49 326 1.7 5.2 0.00 0.00 0.00 75 1015.0
20260506195503 49 30 1.7 5.2 0.00 0.00 0.00 74 1015.0
20260506195003 49 78 1.7 4.3 0.00 0.00 0.00 75 1014.9
20260506194511 49 38 1.7 6.1 0.00 0.00 0.00 75 1015.0
20260506194006 49 19 1.7 8.7 0.00 0.00 0.00 75 1014.9
20260506193504 49 65 2.6 8.7 0.00 0.00 0.00 74 1014.8
20260506193004 49 54 1.7 4.3 0.00 0.00 0.00 74 1014.9
20260506192502 49 59 1.7 8.7 0.00 0.00 0.00 74 1014.7
20260506192007 50 153 1.7 8.7 0.00 0.00 0.00 74 1014.6
20260506191522 50 360 2.6 8.7 0.00 0.00 0.00 74 1014.6
20260506191003 50 346 1.7 7.0 0.00 0.00 0.00 74 1014.5
20260506190504 50 43 1.7 5.2 0.00 0.00 0.00 75 1014.5
20260506190008 50 40 1.7 7.0 0.00 0.00 0.00 75 1014.4
20260506185503 50 54 1.7 7.0 0.00 0.00 0.00 74 1014.4
20260506185003 50 52 1.7 5.2 0.00 0.00 0.00 74 1014.4
20260506184514 50 313 1.7 4.3 0.00 0.00 0.00 74 1014.3
20260506184004 50 49 0.9 4.3 0.00 0.00 0.00 74 1014.2
20260506183504 50 36 1.7 5.2 0.00 0.00 0.00 74 1014.1
20260506183014 50 105 0.9 5.2 0.00 0.00 0.00 74 1014.1
20260506182506 50 26 1.7 5.2 0.00 0.00 0.00 74 1014.1
20260506182003 50 49 1.7 5.2 0.00 0.00 0.00 73 1014.1
20260506181518 50 49 0.9 5.2 0.00 0.00 0.00 73 1014.0
20260506181007 50 90 0.9 5.2 0.00 0.00 0.00 73 1013.9
20260506180510 51 46 1.7 7.8 0.00 0.00 0.00 73 1013.8
20260506180014 51 49 1.7 7.8 0.00 0.00 0.00 72 1013.8
20260506175503 51 140 2.6 7.8 0.00 0.00 0.00 72 1013.8
20260506175007 51 26 1.7 7.8 0.00 0.00 0.00 72 1013.7
20260506174508 51 73 2.6 8.7 0.00 0.00 0.00 72 1013.6
20260506174004 52 352 1.7 9.6 0.00 0.00 0.00 72 1013.5
20260506173504 52 115 2.6 9.6 0.00 0.00 0.00 72 1013.5
20260506173014 52 91 2.6 7.0 0.00 0.00 0.00 71 1013.6
20260506172504 52 38 1.7 8.7 0.00 0.00 0.00 71 1013.5
20260506172004 53 112 2.6 8.7 0.00 0.00 0.00 69 1013.5
20260506171525 53 102 2.6 7.0 0.00 0.00 0.00 68 1013.5
20260506171007 54 110 2.6 8.7 0.00 0.00 0.00 68 1013.5
20260506170503 54 71 2.6 8.7 0.00 0.00 0.00 67 1013.6
20260506170020 54 60 3.5 8.7 0.00 0.00 0.00 65 1013.5
20260506165508 54 55 2.6 7.8 0.00 0.00 0.00 66 1013.5
20260506165003 55 59 3.5 8.7 0.00 0.00 0.00 65 1013.4
20260506164519 55 58 3.5 8.7 0.00 0.00 0.00 66 1013.5
20260506164008 55 100 2.6 9.6 0.00 0.00 0.00 66 1013.5
20260506163511 55 82 3.5 9.6 0.00 0.00 0.00 67 1013.5
20260506163008 55 123 2.6 7.8 0.00 0.00 0.00 68 1013.4
20260506162504 56 69 1.7 7.8 0.00 0.00 0.00 67 1013.5
20260506162004 56 89 2.6 7.8 0.00 0.00 0.00 67 1013.4
20260506161516 55 34 4.3 9.6 0.00 0.00 0.00 67 1013.3
20260506161003 55 140 2.6 9.6 0.00 0.00 0.00 68 1013.3
20260506160508 55 122 2.6 7.8 0.00 0.00 0.00 69 1013.3
20260506160032 55 134 2.6 8.7 0.00 0.00 0.00 68 1013.3
20260506155503 55 101 2.6 8.7 0.00 0.00 0.00 68 1013.3
20260506155010 55 9 3.5 8.7 0.00 0.00 0.00 67 1013.3
20260506154530 55 162 2.6 7.8 0.00 0.00 0.00 68 1013.3
20260506154011 56 66 2.6 7.8 0.00 0.00 0.00 66 1013.3
20260506153504 56 107 2.6 9.6 0.00 0.00 0.00 66 1013.3
20260506153023 56 111 4.3 8.7 0.00 0.00 0.00 65 1013.4
20260506152508 56 84 2.6 8.7 0.00 0.00 0.00 66 1013.3
20260506152004 56 360 2.6 8.7 0.00 0.00 0.00 67 1013.3
20260506151517 56 44 3.5 8.7 0.00 0.00 0.00 66 1013.3
20260506151004 56 53 4.3 8.7 0.00 0.00 0.00 65 1013.3
20260506150506 55 35 2.6 8.7 0.00 0.00 0.00 66 1013.2
20260506150026 55 30 3.5 8.7 0.00 0.00 0.00 65 1013.2
20260506145505 56 87 3.5 7.0 0.00 0.00 0.00 64 1013.3
20260506145008 56 74 2.6 7.8 0.00 0.00 0.00 66 1013.3
20260506144514 56 57 3.5 8.7 0.00 0.00 0.00 66 1013.3
20260506144018 56 70 2.6 8.7 0.00 0.00 0.00 66 1013.3
20260506143516 56 34 1.7 5.2 0.00 0.00 0.00 67 1013.2
20260506143040 56 308 2.6 7.8 0.00 0.00 0.00 66 1013.2
20260506142505 56 43 2.6 7.8 0.00 0.00 0.00 67 1013.2
20260506142006 56 94 3.5 7.8 0.00 0.00 0.00 66 1013.2
20260506141525 56 115 3.5 7.8 0.00 0.00 0.00 65 1013.2
20260506141007 56 117 3.5 7.8 0.00 0.00 0.00 65 1013.2
20260506140504 56 65 3.5 8.7 0.00 0.00 0.00 64 1013.2
20260506140014 56 92 2.6 8.7 0.00 0.00 0.00 67 1013.3
20260506135506 56 76 1.7 7.8 0.00 0.00 0.00 69 1013.3
20260506135004 55 40 0.9 7.8 0.00 0.00 0.00 71 1013.3
20260506134519 55 86 2.6 7.0 0.00 0.00 0.00 70 1013.3
20260506134008 54 105 0.9 9.6 0.00 0.00 0.00 72 1013.2
20260506133507 54 91 2.6 9.6 0.00 0.00 0.00 70 1013.3
20260506133023 55 78 3.5 8.7 0.00 0.00 0.00 68 1013.3
20260506132513 55 40 3.5 8.7 0.00 0.00 0.00 68 1013.2
20260506132014 56 113 2.6 8.7 0.00 0.00 0.00 68 1013.2
20260506131524 56 72 2.6 8.7 0.00 0.00 0.00 69 1013.1
20260506131008 56 53 3.5 8.7 0.00 0.00 0.00 67 1013.2
20260506130515 56 58 2.6 7.8 0.00 0.00 0.00 68 1013.1
20260506130030 57 307 2.6 7.8 0.00 0.00 0.00 67 1013.2
20260506125505 57 88 2.6 8.7 0.00 0.00 0.00 68 1013.1
20260506125003 57 48 1.7 8.7 0.00 0.00 0.00 66 1013.0
20260506124517 57 348 1.7 7.8 0.00 0.00 0.00 65 1013.1
20260506124004 57 90 1.7 7.8 0.00 0.00 0.00 66 1012.9
20260506123505 57 36 2.6 7.8 0.00 0.00 0.00 65 1013.0
20260506123022 57 198 2.6 8.7 0.00 0.00 0.00 66 1012.9
20260506122508 56 52 1.7 8.7 0.00 0.00 0.00 69 1012.9
20260506122012 56 76 2.6 6.1 0.00 0.00 0.00 68 1012.9
20260506121527 56 61 1.7 7.8 0.00 0.00 0.00 67 1012.8
20260506121010 56 333 1.7 8.7 0.00 0.00 0.00 68 1012.8
20260506120515 56 79 2.6 8.7 0.00 0.00 0.00 68 1012.8
20260506120022 56 93 1.7 8.7 0.00 0.00 0.00 67 1012.8
20260506115508 56 46 1.7 8.7 0.00 0.00 0.00 68 1012.8
20260506115013 56 105 1.7 7.0 0.00 0.00 0.00 67 1012.8
20260506114521 56 55 1.7 7.0 0.00 0.00 0.00 66 1012.8